Tracking 30923 objects as of 1-Jul-2025
HD Live streaming from Space Station
objects crossing your sky now

STARLINK-3980

Track STARLINK-3980 now!
10-day predictions
STARLINK-3980 is classified as:


NORAD ID: 52611
Int'l Code: 2022-052P
Perigee: 546.1 km
Apogee: 547.7 km
Inclination: 53.2 °
Period: 95.4 minutes
Semi major axis: 6917 km
RCS: Unknown
Launch date: May 14, 2022
Source: United States (US)
Launch site: AIR FORCE EASTERN TEST RANGE (AFETR)
Your satellite tracking list
ASTRA 2E
Track 1 satellite(s)




NASA's NSSDC Master Catalog

Two Line Element Set (TLE):
1 52611U 22052P   25181.83451364  .00000313  00000-0  37755-4 0  9995
2 52611  53.2180 334.7413 0001162  88.6500 271.4626 15.08838074173135
Source of the keplerian elements: AFSPC